Location: Armidale
(30.5016°S, 151.6662°E)
Time: 04:02:55
(UTC+10:00)

Envisat - Visible Passes

Search period start: 15 May 2021 00:00
Search period end: 25 May 2021 00:00
Orbit: 764 x 766 km, 98.1° (Epoch: 13 May)

Date Brightness Start Highest point End Pass type
(mag) Time Alt. Az. Time Alt. Az. Time Alt. Az.
15 May 5.6 03:29:18 10° ENE 03:32:13 16° ESE 03:35:04 10° SSE visible
15 May 3.2 05:05:52 10° N 05:10:46 48° W 05:15:15 12° SSW visible
16 May 3.2 04:28:55 10° NNE 04:33:57 69° ESE 04:37:45 18° S visible
16 May 5.6 18:23:43 10° SSW 18:27:18 19° WSW 18:30:52 10° WNW visible
17 May 4.8 03:53:02 10° NE 03:57:20 28° ESE 04:00:16 17° SSE visible
17 May 4.0 05:32:04 10° NNW 05:36:13 25° W 05:40:26 10° SW visible
17 May 4.2 17:45:52 10° S 17:50:46 46° WSW 17:55:36 10° NW visible
18 May 5.9 03:19:09 10° E 03:20:54 12° ESE 03:22:41 10° SE visible
18 May 2.9 04:54:16 10° N 04:59:17 63° W 05:02:59 19° SSW visible
18 May 6.1 18:51:43 10° WSW 18:52:20 10° WSW 18:52:59 10° WSW visible
19 May 3.7 04:17:37 10° NNE 04:22:33 52° ESE 04:25:31 23° S visible
19 May 4.7 05:59:23 10° WNW 06:01:46 13° W 06:04:10 10° WSW visible
19 May 5.2 18:11:49 10° SSW 18:15:57 25° WSW 18:20:03 10° NW visible
20 May 5.2 03:42:09 10° ENE 03:45:58 22° ESE 03:48:04 17° SE visible
20 May 3.6 05:20:10 10° NNW 05:24:43 33° W 05:28:16 15° SW visible
20 May 3.6 17:34:18 10° S 17:39:21 61° WSW 17:44:21 10° NNW visible
21 May 2.9 04:42:45 10° N 04:47:50 83° WNW 04:50:49 26° SSW visible
21 May 5.8 18:38:33 10° SW 18:41:02 14° WSW 18:43:32 10° W visible
22 May 4.2 04:06:26 10° NE 04:11:08 40° ESE 04:13:24 26° SSE visible
22 May 4.4 05:46:51 10° NW 05:50:14 18° W 05:53:35 10° SW visible
22 May 4.8 18:00:03 10° S 18:04:35 32° WSW 18:09:04 10° NW visible
23 May 5.5 03:31:26 10° ENE 03:34:38 17° ESE 03:35:59 15° SE visible
23 May 3.3 05:08:24 10° N 05:13:14 43° W 05:16:09 22° SW visible
23 May 3.2 17:22:47 10° S 17:27:56 80° WSW 17:33:00 10° NNW visible
24 May 3.1 04:31:20 10° NNE 04:36:24 75° ESE 04:38:45 33° S visible
24 May 5.6 18:26:21 10° SSW 18:29:43 18° WSW 18:33:04 10° WNW visible
